• In Austria
  • List of Countries
  • For 7 days
  • Water Temperature
  • Satellite Maps
  • Weather Map
  • News
  • Weather Widgets
  • user-avatar
    Login

    Hourly Weather Kermanshah

    Today, 21 January, Sunday

    Time Temperature Precipitation Wind Pressure Humidity
    00:00 0°C° 0 mm 1 mps 637 mmHg 73%
    01:00 0°C° 0 mm 1 mps 637 mmHg 72%
    02:00 0°C° 0 mm 1 mps 637 mmHg 72%
    03:00 0°C° 0 mm 1 mps 637 mmHg 70%
    04:00 0°C° 0 mm 1 mps 637 mmHg 70%
    05:00 0°C° 0 mm 1 mps 637 mmHg 69%
    06:00 0°C° 0 mm 1 mps 638 mmHg 68%
    07:00 +1°C° 0 mm 1 mps 638 mmHg 63%
    08:00 +2°C° 0 mm 1 mps 638 mmHg 57%
    09:00 +3°C° 0 mm 1 mps 639 mmHg 50%
    10:00 +5°C° 0 mm 1 mps 639 mmHg 45%
    11:00 +5°C° 0 mm 0 mps 639 mmHg 40%
    12:00 +6°C° 0 mm 0 mps 639 mmHg 35%
    13:00 +7°C° 0 mm 0 mps 639 mmHg 33%
    14:00 +9°C° 0 mm 1 mps 639 mmHg 31%
    15:00 +10°C° 0 mm 1 mps 638 mmHg 29%
    16:00 +8°C° 0 mm 1 mps 638 mmHg 33%
    17:00 +7°C° 0 mm 1 mps 638 mmHg 37%
    18:00 +6°C° 0 mm 1 mps 637 mmHg 41%
    19:00 +4°C° 0 mm 0 mps 637 mmHg 42%
    20:00 +4°C° 0 mm 0 mps 637 mmHg 44%
    21:00 +3°C° 0 mm 0 mps 637 mmHg 45%
    22:00 +3°C° 0 mm 0 mps 637 mmHg 45%
    23:00 +2°C° 0 mm 0 mps 636 mmHg 46%

    Tomorrow, 22 January, Monday

    Time Temperature Precipitation Wind Pressure Humidity
    00:00 +2°C° 0 mm 0 mps 636 mmHg 46%
    01:00 +3°C° 0 mm 1 mps 636 mmHg 46%
    02:00 +3°C° 0 mm 1 mps 636 mmHg 46%
    03:00 +3°C° 0 mm 1 mps 635 mmHg 45%
    04:00 +3°C° 0 mm 1 mps 635 mmHg 45%
    05:00 +3°C° 0 mm 1 mps 635 mmHg 44%
    06:00 +2°C° 0 mm 1 mps 635 mmHg 43%
    07:00 +4°C° 0 mm 1 mps 636 mmHg 38%
    08:00 +6°C° 0 mm 1 mps 636 mmHg 34%
    09:00 +7°C° 0 mm 1 mps 637 mmHg 29%
    10:00 +9°C° 0 mm 1 mps 637 mmHg 26%
    11:00 +9°C° 0 mm 2 mps 637 mmHg 23%
    12:00 +12°C° 0 mm 2 mps 637 mmHg 20%
    13:00 +12°C° 0 mm 2 mps 637 mmHg 20%
    14:00 +13°C° 0 mm 2 mps 636 mmHg 19%
    15:00 +12°C° 0 mm 3 mps 636 mmHg 18%
    16:00 +12°C° 0 mm 2 mps 636 mmHg 22%
    17:00 +9°C° 0 mm 2 mps 635 mmHg 25%
    18:00 +8°C° 0 mm 2 mps 635 mmHg 29%
    19:00 +7°C° 0 mm 2 mps 635 mmHg 31%
    20:00 +7°C° 0 mm 2 mps 634 mmHg 33%
    21:00 +6°C° 0 mm 2 mps 634 mmHg 36%
    22:00 +6°C° 0 mm 2 mps 634 mmHg 37%
    23:00 +5°C° 0 mm 2 mps 634 mmHg 39%

    Day after tomorrow, 23 January, Tuesday

    Time Temperature Precipitation Wind Pressure Humidity
    00:00 +5°C° 0 mm 2 mps 634 mmHg 41%
    01:00 +4°C° 0 mm 2 mps 634 mmHg 41%
    02:00 +4°C° 0 mm 2 mps 634 mmHg 41%
    03:00 +4°C° 0 mm 2 mps 633 mmHg 42%
    04:00 +3°C° 0 mm 2 mps 633 mmHg 42%
    05:00 +3°C° 0 mm 2 mps 633 mmHg 42%
    06:00 +3°C° 0 mm 2 mps 633 mmHg 42%
    07:00 +4°C° 0 mm 2 mps 633 mmHg 38%
    08:00 +4°C° 0 mm 3 mps 634 mmHg 35%
    09:00 +5°C° 0 mm 3 mps 634 mmHg 31%
    10:00 +8°C° 0.1 mm 3 mps 634 mmHg 29%
    11:00 +8°C° 0.1 mm 4 mps 634 mmHg 27%
    12:00 +10°C° 0.1 mm 4 mps 634 mmHg 25%
    13:00 +10°C° 0.2 mm 4 mps 634 mmHg 29%
    14:00 +10°C° 0.2 mm 4 mps 633 mmHg 32%
    15:00 +8°C° 0.2 mm 4 mps 633 mmHg 35%
    16:00 +8°C° 0.1 mm 4 mps 633 mmHg 39%
    17:00 +8°C° 0.1 mm 3 mps 633 mmHg 43%
    18:00 +7°C° 0.1 mm 3 mps 633 mmHg 47%
    19:00 +5°C° 0.1 mm 3 mps 633 mmHg 49%
    20:00 +5°C° 0.1 mm 3 mps 633 mmHg 52%
    21:00 +5°C° 0.1 mm 2 mps 633 mmHg 55%
    22:00 +5°C° 0 mm 2 mps 633 mmHg 55%
    23:00 +5°C° 0 mm 2 mps 633 mmHg 55%

    24 January, Wednesday

    Time Temperature Precipitation Wind Pressure Humidity
    00:00 +4°C° 0 mm 2 mps 633 mmHg 55%
    01:00 +4°C° 0 mm 2 mps 633 mmHg 55%
    02:00 +3°C° 0 mm 2 mps 633 mmHg 55%
    03:00 +3°C° 0 mm 2 mps 633 mmHg 55%
    04:00 +2°C° 0 mm 2 mps 633 mmHg 57%
    05:00 +2°C° 0 mm 2 mps 633 mmHg 59%
    06:00 +2°C° 0 mm 2 mps 633 mmHg 61%
    07:00 +3°C° 0 mm 2 mps 634 mmHg 59%
    08:00 +4°C° 0 mm 2 mps 635 mmHg 57%
    09:00 +5°C° 0 mm 2 mps 636 mmHg 55%
    10:00 +6°C° 0 mm 2 mps 636 mmHg 51%
    11:00 +8°C° 0 mm 2 mps 636 mmHg 48%
    12:00 +9°C° 0 mm 3 mps 636 mmHg 44%
    13:00 +9°C° 0 mm 3 mps 636 mmHg 42%
    14:00 +10°C° 0 mm 3 mps 636 mmHg 40%
    15:00 +10°C° 0 mm 3 mps 636 mmHg 38%
    16:00 +9°C° 0 mm 2 mps 636 mmHg 42%
    17:00 +8°C° 0 mm 2 mps 636 mmHg 46%
    18:00 +8°C° 0 mm 1 mps 636 mmHg 50%
    19:00 +7°C° 0 mm 1 mps 636 mmHg 52%
    20:00 +7°C° 0 mm 1 mps 636 mmHg 54%
    21:00 +6°C° 0 mm 1 mps 636 mmHg 57%
    22:00 +6°C° 0 mm 1 mps 636 mmHg 59%
    23:00 +5°C° 0 mm 1 mps 635 mmHg 61%

    25 January, Thursday

    Time Temperature Precipitation Wind Pressure Humidity
    00:00 +5°C° 0 mm 1 mps 635 mmHg 63%
    01:00 +5°C° 0 mm 1 mps 635 mmHg 65%
    02:00 +4°C° 0 mm 1 mps 635 mmHg 66%
    03:00 +4°C° 0 mm 1 mps 635 mmHg 68%
    04:00 +4°C° 0 mm 1 mps 635 mmHg 69%
    05:00 +3°C° 0 mm 1 mps 635 mmHg 70%
    06:00 +3°C° 0 mm 1 mps 635 mmHg 71%
    07:00 +4°C° 0 mm 1 mps 635 mmHg 64%
    08:00 +6°C° 0 mm 1 mps 636 mmHg 58%
    09:00 +7°C° 0 mm 1 mps 637 mmHg 52%
    10:00 +8°C° 0 mm 2 mps 637 mmHg 45%
    11:00 +9°C° 0 mm 2 mps 637 mmHg 38%
    12:00 +12°C° 0 mm 2 mps 637 mmHg 31%
    13:00 +12°C° 0 mm 2 mps 637 mmHg 29%
    14:00 +13°C° 0 mm 2 mps 636 mmHg 27%
    15:00 +13°C° 0 mm 2 mps 636 mmHg 25%
    16:00 +12°C° 0 mm 2 mps 636 mmHg 28%
    17:00 +10°C° 0 mm 2 mps 635 mmHg 31%
    18:00 +8°C° 0 mm 2 mps 635 mmHg 34%
    19:00 +8°C° 0 mm 2 mps 635 mmHg 34%
    20:00 +8°C° 0 mm 2 mps 635 mmHg 34%
    21:00 +8°C° 0 mm 2 mps 635 mmHg 34%
    22:00 +8°C° 0.1 mm 2 mps 635 mmHg 35%
    23:00 +8°C° 0.1 mm 2 mps 635 mmHg 36%

    26 January, Friday

    Time Temperature Precipitation Wind Pressure Humidity
    00:00 +8°C° 0.1 mm 2 mps 635 mmHg 38%
    01:00 +7°C° 0.1 mm 2 mps 634 mmHg 39%
    02:00 +7°C° 0.1 mm 2 mps 634 mmHg 41%
    03:00 +7°C° 0.1 mm 2 mps 634 mmHg 43%
    04:00 +6°C° 0 mm 2 mps 634 mmHg 44%
    05:00 +6°C° 0 mm 2 mps 633 mmHg 45%
    06:00 +5°C° 0 mm 2 mps 633 mmHg 47%
    07:00 +5°C° 0.1 mm 3 mps 634 mmHg 46%
    08:00 +7°C° 0.1 mm 3 mps 634 mmHg 44%
    09:00 +8°C° 0.1 mm 3 mps 634 mmHg 43%
    10:00 +8°C° 0.2 mm 4 mps 634 mmHg 42%
    11:00 +8°C° 0.2 mm 5 mps 634 mmHg 42%
    12:00 +9°C° 0.2 mm 6 mps 634 mmHg 41%
    13:00 +10°C° 0 mm 7 mps 633 mmHg 39%
    14:00 +10°C° 0 mm 7 mps 633 mmHg 37%
    15:00 +11°C° 0 mm 7 mps 633 mmHg 35%
    16:00 +10°C° 0 mm 6 mps 633 mmHg 41%
    17:00 +8°C° 0 mm 5 mps 632 mmHg 46%
    18:00 +7°C° 0 mm 4 mps 632 mmHg 52%
    19:00 +7°C° 0.2 mm 3 mps 632 mmHg 56%
    20:00 +7°C° 0.2 mm 3 mps 632 mmHg 60%
    21:00 +7°C° 0.2 mm 2 mps 632 mmHg 65%
    22:00 +6°C° 0.3 mm 2 mps 632 mmHg 69%
    23:00 +5°C° 0.3 mm 2 mps 632 mmHg 74%
    Show more